Location: Eitze
(52.9840°N, 9.6894°E)
Time: 00:38:58
(UTC+00:00)

Cosmos 2208 Rocket - Pass Details

Date: 19 May 2025
Orbit: 752 x 801 km, 74.0° (Epoch: 22 June)

Event Time Altitude Azimuth Distance (km) Brightness Sun altitude
Exits shadow 20:55:03 - 189° (S) 2,816 6.5 -10.8°
Reaches altitude 10° 20:56:15 10° 187° (S) 2,356 6.1 -10.9°
Maximum altitude 21:01:30 58° 109° (ESE) 919 4.2 -11.3°
Drops below altitude 10° 21:06:43 10° 32° (NNE) 2,343 6.9 -11.7°
Sets 21:09:07 0° 29° (NNE) 3,267 7.7 -11.9°
